Tracking 31027 objects as of 19-Jul-2025
HD Live streaming from Space Station
objects crossing your sky now

SL-16 DEB

Track SL-16 DEB now!
10-day predictions


NORAD ID: 28355
Int'l Code: 2004-021D
Perigee: 846.3 km
Apogee: 1,179.9 km
Inclination: 71.0 °
Period: 105.2 minutes
Semi major axis: 7384 km
RCS: 0.0925 m2 (small)
Launch date: June 10, 2004
Source: Commonwealth of Independent States (former USSR) (CIS)
Launch site: TYURATAM MISSILE AND SPACE COMPLEX (TTMTR)

Note: This is SATELLITE DEBRIS
Your satellite tracking list
ONEWEB-0142
Track 1 satellite(s)




NASA's NSSDC Master Catalog

Two Line Element Set (TLE):
1 28355U 04021D   25199.47076282  .00000151  00000-0  18814-3 0  9994
2 28355  70.9670 104.3742 0225878  75.7921  94.5923 13.68230027 53011
Source of the keplerian elements: AFSPC